Content
SEND FEEDBACK

Daily
Averages
Monthly
Summary
Turkey

DIYARBAKIR, TURKEY


Home > Middle East > Turkey
Elevation: 2221 feet     Latitude: 37 53N     Longitude: 040 11E

WEATHER
 
SELECT A DAY
Number of Records: 215,094;   Date Range: 7/1/96 - 11/27/14
 
SHARE

PRINT THIS DATA

[ ← Previous Day ]
WEATHER ALMANAC - MARCH 19, 2013
[ Next Day → ]
[ °C ]   °F
Weather ElementAverageHighLow
Temperature42.9 °F54 °F (2:00 pm)28.4 °F (3:50 am)
Dewpoint27.3 °F33.8 °F (9:50 pm)23 °F (1:20 am)
Humidity55.8 %80 % (12:50 am)23 % (2:00 pm)
Barometer30.05 in30.12 in (8:00 am)30.01 in (2:20 pm)
Wind Speed4.4 mph10.4 mph (4:20 am)
Weather ElementAverage
Visibility12 mi
Wind DirectionSSE (145.1 °)

Weather ElementTotal
Precipitation---
Heating Degree Days23.8 (Base 65)
Averaged from 50 records on March 19, 2013
WEATHER CONDITIONS BREAKOUT
WIND DIRECTION BREAKOUT
WEATHER BY HOUR - MARCH 19, 2013
[ °C ]   °F
Local TimeTemperatureDewpointHumidityBarometerVisibilityWind DirectionWind SpeedGust SpeedPrecipitationEventsConditions
12:50 AM30.2 °F24.8 °F80 %30.04 inWNW (300°)3.5 mphClear
1:20 AM32.0 °F23.0 °F69 %30.04 inWest (270°)3.5 mphClear
1:50 AM32.0 °F23.0 °F69 %30.04 inVariable2.3 mphClear
2:00 AM31.0 °F23.0 °F63 %30.10 in12.0 miWest (280°)2.3 mph
2:20 AM30.2 °F23.0 °F75 %30.04 inWNW (290°)6.9 mphClear
2:50 AM30.2 °F23.0 °F75 %30.04 inNW (320°)4.6 mphClear
3:20 AM30.2 °F23.0 °F75 %30.04 inWSW (240°)5.8 mphClear
3:50 AM28.4 °F23.0 °F80 %30.04 inWest (260°)8.1 mphClear
4:20 AM28.4 °F23.0 °F80 %30.04 inWest (270°)10.4 mphClear
4:50 AM28.4 °F23.0 °F80 %30.06 inWest (260°)6.9 mphClear
5:20 AM28.4 °F23.0 °F80 %30.06 inWest (280°)6.9 mphClear
5:50 AM28.4 °F23.0 °F80 %30.06 inWest (270°)4.6 mphClear
6:20 AM32.0 °F24.8 °F75 %30.06 inWest (260°)6.9 mphClear
6:50 AM37.4 °F28.4 °F70 %30.06 inWest (280°)4.6 mphClear
7:20 AM41.0 °F26.6 °F57 %30.06 inWest (270°)4.6 mphClear
8:00 AM43.0 °F25.0 °F36 %30.12 in12.0 miENE (60°)5.8 mph
8:20 AM44.6 °F23.0 °F43 %30.06 inNNE (20°)6.9 mphClear
8:50 AM46.4 °F26.6 °F46 %30.06 inNE (50°)5.8 mphClear
9:20 AM46.4 °F28.4 °F50 %30.06 inNE (50°)8.1 mphClear
9:50 AM48.2 °F28.4 °F46 %30.06 inVariable4.6 mphClear
10:20 AM50.0 °F30.2 °F47 %30.06 inENE (70°)5.8 mphClear
10:50 AM50.0 °F26.6 °F40 %30.06 inVariable2.3 mphClear
11:20 AM51.8 °F28.4 °F41 %30.06 inVariable4.6 mphClear
11:50 AM51.8 °F24.8 °F35 %30.06 inSSE (150°)6.9 mphClear
12:20 PM51.8 °F24.8 °F35 %30.04 inSSE (160°)5.8 mphClear
12:50 PM53.6 °F24.8 °F33 %30.04 inSW (230°)3.5 mphClear
1:20 PM53.6 °F26.6 °F35 %30.04 inSSE (160°)3.5 mphClear
1:50 PM53.6 °F26.6 °F35 %30.04 inCalmClear
2:00 PM54.0 °F27.0 °F23 %30.07 in12.0 miCalmClear
2:20 PM53.6 °F28.4 °F38 %30.01 inNNE (30°)5.8 mphClear
2:50 PM53.6 °F28.4 °F38 %30.01 inVariable3.5 mphClear
3:20 PM53.6 °F26.6 °F35 %30.01 inNNE (20°)3.5 mphClear
3:50 PM53.6 °F24.8 °F33 %30.01 inEast (80°)4.6 mphClear
4:20 PM53.6 °F28.4 °F38 %30.01 inNE (50°)4.6 mphClear
4:50 PM51.8 °F28.4 °F41 %30.01 inENE (70°)5.8 mphClear
5:20 PM50.0 °F30.2 °F47 %30.01 inENE (70°)5.8 mphClear
5:50 PM48.2 °F30.2 °F50 %30.01 inENE (60°)4.6 mphClear
6:20 PM48.2 °F30.2 °F50 %30.04 inENE (70°)4.6 mphClear
6:50 PM46.4 °F30.2 °F53 %30.04 inEast (100°)4.6 mphClear
7:20 PM46.4 °F30.2 °F53 %30.04 inVariable2.3 mphClear
7:50 PM46.4 °F30.2 °F53 %30.04 inSouth (190°)1.2 mphClear
8:00 PM47.0 °F30.0 °F39 %30.08 in12.0 miSouth (190°)1.2 mphClear
8:20 PM44.6 °F32.0 °F61 %30.04 inSSW (200°)3.5 mphClear
8:50 PM44.6 °F32.0 °F61 %30.04 inWSW (240°)4.6 mphClear
9:20 PM39.2 °F32.0 °F75 %30.04 inWNW (290°)4.6 mphClear
9:50 PM41.0 °F33.8 °F76 %30.04 inNW (310°)4.6 mphClear
10:20 PM39.2 °F32.0 °F75 %30.04 inWNW (300°)3.5 mphClear
10:50 PM39.2 °F32.0 °F75 %30.04 inVariable2.3 mphClear
11:20 PM41.0 °F32.0 °F70 %30.04 inNE (40°)1.2 mphClear
11:50 PM39.2 °F32.0 °F75 %30.04 inCalmClear
Hourly data recorded from LTCC, located miles away from Diyarbakir, Turkey







STORIES FROM OUR PARTNERS